Miscellaneous Local Product
Issued by NWS Hastings, NE

Home | Current Version | Previous Version | Text Only | Print | Product List | Glossary On
Versions: 1 2 3 4 5 6 7 8 9 10 11 12 13 14 15 16 17 18 19 20 21 22 23 24 25 26 27 28 29 30 31 32 33 34 35 36 37 38 39 40 41 42 43 44 45 46 47 48 49 50
000
AXUS43 KGID 312302
MISGRI

GID CWA HOURLY WEATHER ROUNDUP
NATIONAL WEATHER SERVICE HASTINGS NE
600 PM CDT FRI OCT 31 2014

NOTE: "FAIR" INDICATES FEW OR NO CLOUDS BELOW 12,000 FEET WITH NO
SIGNIFICANT WEATHER AND/OR OBSTRUCTIONS TO VISIBILITY.

...SOUTH CENTRAL NEBRASKA...

CITY           SKY/WX    TMP DP  RH WIND       PRES   REMARKS
GRAND ISLAND   CLEAR     42  13  30 SE7       30.43F
HASTINGS       CLEAR     41  12  30 E8        30.42F
KEARNEY        CLEAR     41  12  30 E12       30.42F
ORD            CLEAR     41  13  31 S10       30.39F
YORK           CLEAR     41  16  36 SE6       30.45F
AURORA         CLEAR     41  11  28 SE6       30.44S
LEXINGTON      CLEAR     44  13  28 SE10      30.37F
HOLDREGE       CLEAR     42  11  28 SE12      30.40S
HEBRON         CLEAR     43   8  23 E3        30.45F

...NEBRASKA PANHANDLE...

CITY           SKY/WX    TMP DP  RH WIND       PRES   REMARKS
CHADRON        PTCLDY    50  29  44 S16G24    30.09F
ALLIANCE       MOCLDY    47  28  47 S28G36    30.16F
SCOTTSBLUFF    CLEAR     55  31  39 SE17      30.11F
SIDNEY         PTCLDY    50  28  42 S20G30    30.19S

...WESTERN AND NORTH CENTRAL NEBRASKA...

CITY           SKY/WX    TMP DP  RH WIND       PRES   REMARKS
VALENTINE      PTCLDY    45  12  26 SE18G25   30.27F
AINSWORTH      CLEAR     41  12  31 SE13      30.31F
ONEILL         PTCLDY    42  14  31 SE13      30.39F
BROKEN BOW     CLEAR     42  14  32 S14       30.36F
IMPERIAL       CLEAR     46  20  35 SE23      30.28F
NORTH PLATTE   CLEAR     44  16  32 S14       30.32F
MCCOOK         CLEAR     45  17  32 SE16G22   30.35F

...EASTERN NEBRASKA...

CITY           SKY/WX    TMP DP  RH WIND       PRES   REMARKS
NORFOLK        CLEAR     39  15  37 SE6       30.44F WCI  35
SO SIOUX CITY  CLEAR     40  17  39 SE3       30.48F
TEKAMAH        CLEAR     43  16  33 N3        30.48S
ALBION         FAIR      40  13  32 S7        30.42F
OMAHA EPPLEY   PTCLDY    42  17  36 NE3       30.48F
OFFUTT AFB     CLEAR     42  19  39 N3        30.46F
MILLARD        CLEAR     42  17  36 CALM      30.47F
LINCOLN        CLEAR     41  19  41 NE5       30.48F
NEBRASKA CITY  CLEAR     41  10  29 NE6       30.46F
BEATRICE       CLEAR     40  17  39 NE3       30.45F
FALLS CITY     CLEAR     43  17  35 N6        30.46F

...NORTHERN KANSAS...

CITY           SKY/WX    TMP DP  RH WIND       PRES   REMARKS
GOODLAND       CLEAR     46  23  40 S21G26    30.31S
HILL CITY      CLEAR     45  12  26 E12       30.39F
NORTON         CLEAR     43   5  21 E8        30.38F
PHILLIPSBURG   CLEAR     46  12  25 SE9       30.42F
SMITH CENTER   CLEAR     43  12  28 E7        30.44S
BELOIT         CLEAR     45  16  31 E3        30.44S
HAYS           CLEAR     45  14  29 E12       30.41F
RUSSELL        CLEAR     44  16  32 E7        30.42S
CONCORDIA      CLEAR     43  14  31 E6        30.44F
SALINA         CLEAR     46  15  28 NE5       30.45F
TOPEKA         CLEAR     45  17  32 N8        30.46F



USA.gov is the U.S. government's official web portal to all federal, state and local government web resources and services.